Home   Weather   22°23'N, 114°12'E   Past weeks
Flag for Hong Kong

Past Weather in 22°23'N, 114°12'E, Hong Kong — Yesterday and Last 2 Weeks

Now
86 °F

Passing clouds.


Feels Like: 99 °F
Forecast: 92 / 83 °F
Wind: 6 mph from West

Location: National Airport

Current Time: Jul 17, 2019 at 8:48:21 am

Latest Report: Jul 17, 2019 at 8:00 am


Visibility: N/A

Pressure: 29.62 "Hg

Humidity: 79%

Dew Point: 79 °F

Location of 22°23'N, 114°12'ELocation

Past Weather in 22°23'N, 114°12'E — Graph

°F

22°23'N, 114°12'E Temperature Yesterday

Maximum temperature yesterday: 93 °F (at 1:00 pm)
Minimum temperature yesterday: 82 °F (at 6:00 am)
Average temperature yesterday: 88 °F

High & Low Weather Summary for the Past Weeks

 TemperatureHumidityPressure
High95 °F (Jul 15, 1:00 pm)100% (Jul 2, 11:30 pm)29.80 "Hg (Jul 2, 11:30 pm)
Low79 °F (Jul 2, 11:30 pm)47% (Jul 16, 3:00 pm)29.50 "Hg (Jul 2, 5:00 pm)
Average86 °F76%29.66 "Hg
* Reported Jul 2 7:00 am — Jul 17 7:30 am, 22°23'N, 114°12'E. Weather by CustomWeather, © 2019

Note: Actual official high and low records may vary slightly from our data, if they occured in-between our weather recording intervals... More about our weather records

Advertising

22°23'N, 114°12'E Weather History for the Previous 24 Hours

Scroll right to see more
 ConditionsComfort  
Time TempWeatherWind HumidityBarometerVisibility
7:30 am
Wed, Jul 17
86 °FPassing clouds.5 mph79%29.62 "HgN/A
7:00 am86 °FPassing clouds.2 mph79%29.62 "HgN/A
6:30 am84 °FPassing clouds.3 mph84%29.62 "HgN/A
6:00 am84 °FPassing clouds.2 mph84%29.62 "HgN/A
5:30 am84 °FPassing clouds.2 mph79%29.59 "HgN/A
5:00 am84 °FPassing clouds.2 mph79%29.59 "HgN/A
4:30 am84 °FPassing clouds.3 mph79%29.59 "HgN/A
4:00 am84 °FPassing clouds.3 mph84%29.59 "HgN/A
3:30 am84 °FPassing clouds.6 mph84%29.59 "HgN/A
3:00 am84 °FPassing clouds.7 mph84%29.59 "HgN/A
2:30 am84 °FPassing clouds.7 mph84%29.62 "HgN/A
2:00 am84 °FClear.6 mph79%29.62 "Hg10 mi
1:30 am86 °FPassing clouds.3 mph75%29.62 "HgN/A
1:00 am84 °FClear.2 mph79%29.62 "Hg10 mi
12:30 am86 °FClear.3 mph75%29.62 "Hg10 mi
12:00 am86 °FClear.7 mph75%29.65 "Hg10 mi
11:30 pm
Tue, Jul 16
86 °FClear.7 mph75%29.65 "Hg10 mi
11:00 pm86 °FPassing clouds.5 mph75%29.65 "HgN/A
10:30 pm86 °FPassing clouds.7 mph75%29.65 "HgN/A
10:00 pm86 °FClear.6 mph79%29.65 "Hg10 mi
9:30 pm86 °FClear.3 mph79%29.62 "Hg10 mi
9:00 pm88 °FPassing clouds.3 mph75%29.62 "HgN/A
8:30 pm88 °FPassing clouds.6 mph75%29.62 "HgN/A
8:00 pm88 °FPassing clouds.5 mph75%29.62 "HgN/A
7:30 pm90 °FPassing clouds.7 mph67%29.62 "HgN/A
7:00 pm88 °FPassing clouds.7 mph75%29.62 "HgN/A
6:30 pm90 °FPassing clouds.8 mph67%29.62 "HgN/A
6:00 pm91 °FPassing clouds.10 mph63%29.62 "HgN/A
5:30 pm93 °FPassing clouds.9 mph56%29.62 "HgN/A
5:00 pm93 °FPassing clouds.13 mph59%29.62 "HgN/A
4:30 pm93 °FPassing clouds.12 mph59%29.62 "HgN/A
4:00 pm93 °FPassing clouds.12 mph56%29.62 "HgN/A
3:30 pm91 °FPassing clouds.12 mph56%29.62 "HgN/A
3:00 pm93 °FPassing clouds.12 mph47%29.62 "HgN/A
2:30 pm93 °FPassing clouds.10 mph53%29.65 "HgN/A
2:00 pm91 °FPassing clouds.10 mph52%29.65 "HgN/A
1:30 pm93 °FPassing clouds.9 mph49%29.65 "HgN/A
1:00 pm93 °FPassing clouds.9 mph53%29.68 "HgN/A
12:30 pm91 °FPassing clouds.9 mph56%29.68 "HgN/A
12:00 pm91 °FPassing clouds.9 mph59%29.68 "HgN/A
11:30 am91 °FPassing clouds.8 mph59%29.71 "HgN/A
11:00 am90 °FPassing clouds.7 mph59%29.71 "HgN/A
10:30 am90 °FPassing clouds.5 mph63%29.71 "HgN/A
10:00 am90 °FPassing clouds.5 mph63%29.71 "HgN/A
9:30 am88 °FPassing clouds.5 mph75%29.71 "HgN/A
9:00 am86 °FPassing clouds.5 mph79%29.71 "HgN/A
8:30 am86 °FPassing clouds.3 mph79%29.71 "HgN/A
8:00 am84 °FPassing clouds.3 mph84%29.71 "HgN/A
Weather by CustomWeather, © 2019

See weather overview

LIVE PARTIAL LUNAR ECLIPSE – Watch the eclipse as it happens